Temp
86 84 85 87 91 88 86 82 76 71 71 82 71 73 82 95 92 92 92 81 75 74 73 73 73 73 74 75 76 76 77 77 77 77 77 78 79 80
91 86 86 89 89 90 90 90 87 80 77 80 86 90 83 75 88 90 92 83 75 74 73 72 72 72 73 74 74 74 75 75 75 75 75 75 76 77
86 85 84 85 86 87 88 89 87 84 78 83 86 87 84 84 87 86 88 93 93 73 73 72 71 71 71 72 72 73 73 73 73 74 74 74 75 75
84 84 83 85 82 83 86 83 84 85 80 76 81 83 83 84 81 78 86 95 94 81 73 72 71 70 69 69 69 70 70 70 71 71 72 73 73 74
83 82 82 82 80 82 80 81 83 84 84 83 82 87 87 88 85 81 79 79 91 83 72 71 71 70 69 67 67 67 66 66 67 67 68 69 71 72
82 82 80 80 77 79 80 79 80 80 81 82 83 84 86 86 87 84 82 78 77 90 89 84 76 71 69 67 67 66 64 63 63 64 64 65 67 69
78 80 78 78 73 74 78 77 76 76 78 80 82 84 85 86 83 87 85 84 82 79 85 90 85 87 83 69 76 69 66 64 63 62 62 62 63 64
76 78 79 77 76 71 71 71 73 73 72 74 76 77 76 80 84 84 83 82 80 87 80 84 90 91 91 92 79 74 66 65 64 63 62 61 61 62
73 74 76 82 77 79 75 70 69 69 70 74 72 74 74 77 78 77 78 79 80 86 84 75 80 75 90 95 73 70 69 66 65 64 63 61 60 60
73 74 74 74 76 74 75 74 75 77 78 77 73 75 77 79 78 79 77 77 80 83 82 78 85 75 82 92 77 71 68 67 65 63 62 60 59 58
74 74 74 74 70 62 71 70 71 74 74 69 69 68 69 68 72 74 74 71 78 82 86 82 83 84 87 87 89 69 66 65 63 62 62 60 57 56
71 73 69 69 60 59 67 67 65 69 72 73 73 74 71 75 68 74 79 76 79 79 85 83 83 80 77 85 85 88 78 63 59 60 61 60 57 71
67 69 72 57 56 56 56 63 63 64 62 67 71 74 78 81 80 80 76 79 78 79 85 84 84 84 80 78 80 80 80 78 70 64 57 57 55 63
64 67 68 57 55 55 57 59 58 59 67 68 70 72 76 80 80 78 79 76 77 78 82 80 78 83 79 73 71 79 76 78 75 74 72 63 54 55
64 62 58 55 54 58 59 59 58 65 67 67 69 71 76 81 76 78 73 73 75 78 79 80 78 77 73 76 78 80 76 76 73 72 73 73 73 66
60 59 57 56 56 57 59 60 63 66 66 67 70 73 76 75 75 80 75 75 69 76 79 79 77 77 76 80 81 80 84 77 80 76 75 74 73 76
53 54 55 58 60 62 62 62 64 64 66 65 65 67 71 69 71 74 71 69 67 66 72 79 78 76 77 76 76 81 82 82 85 81 74 73 74 80
49 50 52 55 57 59 60 59 60 61 60 65 65 61 59 64 66 72 71 68 70 75 76 74 75 70 71 73 73 77 81 82 84 84 82 79 80 83
54 53 53 55 56 57 59 58 57 59 59 60 58 60 62 57 60 65 66 69 67 66 73 78 68 71 68 62 71 68 79 82 82 82 83 83 80 82
52 51 51 53 53 53 54 56 56 56 56 57 59 57 62 58 55 60 63 62 65 68 68 76 72 74 67 71 76 77 60 73 80 80 81 84 84 68
51 50 51 51 51 51 52 54 53 53 54 55 56 55 56 60 61 62 64 58 60 64 67 69 77 68 71 72 73 78 83 60 70 80 81 81 80 79
49 49 50 50 50 49 49 48 48 49 51 53 56 53 53 58 61 66 67 66 65 70 72 77 76 75 77 73 74 74 77 82 60 58 58 66 78 74
48 48 48 49 49 49 49 48 48 49 52 53 52 50 52 55 63 65 70 69 69 70 71 68 76 75 75 75 72 74 73 75 73 72 76 58 59 56
MSLP
1012.67 1012.68 1012.58 1012.42 1011.86 1012.24 1012.57 1012.86 1012.78 1012.05 1011.19 1010.61 1010.85 1009.61 1009.91 1009.30 1009.22 1009.07 1009.39 1009.58 1010.33 1010.72 1011.17 1011.56 1012.06 1012.38 1012.73 1013.17 1013.60 1013.88 1014.11 1014.40 1014.57 1014.62 1014.77 1015.11 1015.39 1015.56
1011.76 1012.32 1012.50 1012.20 1012.11 1011.83 1011.66 1011.41 1011.51 1011.40 1010.73 1010.97 1010.58 1010.25 1010.71 1010.12 1009.10 1008.84 1009.09 1009.41 1009.96 1010.27 1010.55 1010.95 1011.21 1011.62 1011.96 1012.28 1012.69 1013.12 1013.49 1013.84 1014.07 1014.23 1014.36 1014.52 1014.76 1015.01
1012.49 1012.51 1012.63 1012.66 1012.56 1012.38 1011.88 1011.48 1011.18 1011.40 1010.89 1010.08 1010.31 1010.50 1010.14 1010.04 1009.16 1008.59 1008.67 1008.54 1008.47 1009.08 1009.42 1009.86 1010.35 1010.88 1011.17 1011.42 1011.84 1012.23 1012.63 1012.99 1013.35 1013.63 1013.81 1014.02 1014.17 1014.34
1012.31 1012.50 1012.70 1012.64 1012.74 1012.70 1012.24 1011.68 1011.19 1010.99 1010.80 1009.99 1009.65 1009.28 1009.08 1008.97 1009.16 1009.46 1009.26 1008.11 1007.61 1007.74 1008.37 1008.78 1009.18 1009.67 1010.30 1010.76 1011.02 1011.29 1011.66 1012.10 1012.44 1012.86 1013.16 1013.38 1013.58 1013.71
1012.37 1012.55 1012.73 1012.81 1012.79 1012.72 1012.73 1012.39 1011.82 1011.27 1010.79 1009.98 1009.19 1008.80 1008.48 1008.66 1008.55 1009.03 1009.19 1009.15 1008.30 1007.63 1008.03 1008.58 1008.86 1009.05 1009.16 1009.56 1010.12 1010.52 1010.80 1011.09 1011.61 1011.88 1012.21 1012.53 1012.76 1012.94
1012.37 1012.53 1012.82 1012.93 1012.82 1012.62 1012.34 1012.17 1012.09 1011.70 1011.12 1010.38 1009.47 1008.79 1008.25 1008.11 1007.96 1008.09 1008.22 1008.47 1008.34 1007.50 1006.79 1006.82 1007.44 1008.06 1008.68 1008.75 1008.80 1009.28 1009.82 1010.23 1010.44 1010.91 1011.30 1011.64 1011.89 1012.07
1012.48 1012.47 1012.43 1012.21 1012.37 1012.50 1012.52 1012.14 1012.04 1011.82 1011.32 1010.49 1009.46 1008.59 1007.93 1007.46 1007.34 1007.29 1007.07 1007.45 1007.72 1007.90 1007.04 1006.46 1006.46 1006.87 1007.25 1007.77 1007.78 1008.25 1008.49 1008.92 1009.43 1009.73 1010.14 1010.59 1010.98 1011.22
1012.41 1012.18 1011.96 1011.76 1011.76 1011.56 1011.66 1011.67 1011.79 1011.68 1011.46 1011.23 1010.06 1008.98 1008.29 1008.09 1007.70 1007.48 1007.28 1007.19 1006.47 1006.80 1007.26 1006.62 1005.90 1005.41 1005.32 1005.52 1005.89 1006.42 1006.98 1007.54 1008.01 1008.52 1008.95 1009.40 1009.87 1010.26
1012.18 1012.19 1011.85 1011.20 1011.13 1011.15 1011.10 1010.99 1010.88 1010.72 1010.54 1010.58 1010.18 1009.43 1008.85 1008.50 1008.26 1007.91 1007.64 1007.20 1006.74 1006.33 1006.17 1006.15 1006.55 1006.20 1005.00 1004.00 1004.56 1004.90 1005.38 1006.01 1006.64 1007.17 1007.70 1008.30 1008.88 1009.31
1012.05 1011.60 1011.40 1011.19 1010.98 1010.84 1010.71 1010.51 1010.26 1009.87 1009.64 1009.57 1009.11 1008.70 1008.36 1008.08 1008.04 1007.61 1007.44 1007.31 1006.96 1006.67 1006.41 1005.45 1005.48 1005.18 1004.90 1003.97 1003.78 1004.28 1004.34 1004.68 1005.41 1005.97 1006.51 1007.05 1007.76 1008.37
1011.67 1011.22 1010.94 1010.72 1010.66 1010.93 1010.78 1010.38 1009.92 1009.40 1009.09 1008.97 1008.45 1007.82 1007.51 1007.47 1007.27 1007.74 1007.08 1006.60 1005.47 1004.96 1004.86 1004.99 1005.00 1004.32 1003.74 1003.61 1003.30 1003.62 1004.31 1004.30 1004.73 1005.63 1006.33 1006.55 1006.90 1007.61
1011.42 1011.01 1010.81 1010.56 1010.80 1011.06 1011.07 1010.57 1010.13 1009.60 1009.21 1008.83 1008.18 1007.46 1006.76 1006.46 1006.31 1006.31 1006.09 1005.65 1004.78 1004.15 1003.95 1003.72 1003.90 1004.71 1004.09 1003.60 1003.52 1003.41 1003.77 1004.40 1004.70 1004.76 1005.22 1005.50 1006.10 1006.94
1012.06 1011.35 1010.96 1011.31 1011.58 1011.72 1011.65 1011.03 1010.41 1010.45 1009.74 1009.13 1007.97 1007.01 1005.88 1004.96 1004.75 1004.62 1004.87 1004.85 1004.37 1003.59 1003.31 1003.09 1003.07 1003.26 1003.44 1003.49 1003.31 1003.28 1003.42 1003.87 1004.18 1004.30 1004.99 1005.72 1005.84 1006.08
1012.24 1011.60 1011.16 1010.95 1010.92 1011.03 1010.69 1010.42 1010.11 1009.80 1008.78 1007.69 1006.90 1006.27 1004.54 1003.45 1003.33 1003.44 1003.25 1003.58 1003.68 1003.37 1002.92 1002.85 1002.87 1002.54 1002.97 1003.15 1003.40 1002.94 1002.99 1003.23 1003.43 1003.95 1003.90 1003.76 1005.04 1005.58
1012.81 1012.27 1011.78 1011.37 1011.16 1010.60 1009.69 1009.24 1009.02 1008.21 1007.31 1006.42 1005.52 1004.59 1003.60 1002.46 1002.44 1002.40 1002.47 1002.31 1002.33 1002.62 1002.71 1002.69 1002.64 1002.80 1002.66 1002.08 1002.29 1002.19 1002.59 1002.50 1002.30 1002.77 1000.97 1002.70 1003.60 1004.92
1012.43 1011.97 1011.78 1011.26 1010.48 1009.58 1009.06 1008.75 1008.17 1007.33 1006.32 1005.72 1004.89 1003.83 1003.14 1002.29 1001.96 1001.74 1002.02 1001.77 1001.80 1001.42 1001.54 1001.70 1002.13 1002.34 1002.35 1002.03 1001.74 1001.56 1001.24 1001.41 1001.42 1001.37 1001.21 1001.74 1002.62 1003.01
1012.47 1012.07 1011.06 1010.00 1008.97 1008.03 1007.68 1007.56 1007.19 1006.47 1005.40 1004.84 1004.32 1003.73 1002.69 1002.34 1001.91 1001.54 1001.83 1001.59 1001.27 1000.70 1000.65 1000.77 1000.99 1001.32 1001.51 1001.70 1001.39 1000.97 1000.56 1000.14 999.98 1000.40 1001.17 1001.54 1001.79 1001.77
1012.06 1011.17 1010.21 1009.29 1008.23 1007.32 1006.78 1006.70 1006.69 1006.04 1005.50 1004.57 1004.19 1003.81 1003.46 1003.01 1002.09 1001.63 1001.47 1001.55 1000.90 999.94 999.81 999.97 999.71 1000.21 1000.94 1001.06 1001.06 1000.54 1000.07 999.71 999.48 999.34 999.64 999.99 1000.20 1000.23
1010.27 1009.57 1009.03 1008.48 1007.71 1007.11 1006.46 1006.05 1005.82 1005.52 1005.17 1004.86 1004.40 1004.01 1003.20 1002.93 1002.61 1001.72 1001.69 1001.06 1000.83 1000.48 999.84 999.22 999.19 999.30 999.77 999.95 999.56 999.73 999.21 999.18 999.20 999.16 999.08 998.84 998.94 999.09
1009.25 1008.67 1008.06 1007.68 1007.36 1006.84 1006.31 1005.71 1005.36 1005.17 1004.75 1004.44 1003.82 1003.85 1003.07 1002.56 1002.34 1001.62 1001.07 1000.68 1000.47 1000.16 999.54 998.82 998.73 998.55 998.87 998.69 998.12 998.04 998.82 999.01 998.28 998.36 998.47 998.32 998.05 998.54
1008.40 1007.80 1007.27 1006.84 1006.47 1006.25 1005.94 1005.39 1005.08 1004.68 1004.41 1004.10 1003.78 1003.51 1003.29 1002.34 1001.54 1000.80 1000.22 999.98 999.91 999.53 999.08 998.74 998.04 998.29 998.34 998.15 997.72 997.15 996.94 998.03 997.86 997.78 997.77 997.90 997.77 997.83
1007.71 1007.13 1006.54 1006.06 1005.64 1005.44 1005.20 1004.97 1004.61 1004.28 1003.94 1003.68 1003.36 1003.28 1003.00 1002.11 1001.15 1000.08 999.41 999.03 998.86 998.38 997.98 997.58 997.43 997.61 997.58 997.37 997.07 997.18 997.02 996.79 997.86 997.89 998.13 997.79 998.01 998.15
1006.93 1006.38 1005.79 1005.31 1004.87 1004.59 1004.34 1004.15 1003.97 1003.54 1003.20 1002.94 1002.80 1002.66 1002.28 1001.72 1000.33 999.50 998.51 998.27 997.83 997.32 997.24 997.31 996.82 996.72 996.67 996.58 996.76 996.93 996.93 996.91 997.02 997.50 997.53 997.66 998.00 998.31
Wind_Speed
5 6 6 7 8 7 6 7 7 6 8 12 1 4 17 4 3 1 6 8 15 16 16 15 14 14 14 14 15 15 16 16 16 16 17 17 16 17
6 8 6 7 9 8 8 7 7 8 12 6 11 9 4 4 7 6 7 5 12 13 15 15 15 16 16 16 16 16 16 16 16 16 16 16 15 15
5 6 6 6 7 9 9 9 6 7 11 11 10 11 11 9 10 9 7 10 9 19 18 17 16 16 16 17 17 17 17 16 16 16 17 16 16 16
6 6 6 7 7 8 10 9 10 10 9 12 11 10 10 8 8 8 11 12 9 14 19 18 18 18 17 16 16 17 16 16 16 16 16 17 16 16
6 6 8 8 7 8 8 10 11 10 12 11 11 9 8 9 7 6 7 10 11 9 16 14 14 16 18 18 17 17 16 16 16 17 17 17 17 18
7 8 7 9 9 10 9 8 10 11 12 12 11 11 10 8 8 7 9 5 7 12 12 13 17 18 17 17 18 18 18 18 17 17 17 17 18 18
8 11 12 8 5 7 10 12 10 11 11 12 12 11 11 9 8 7 8 7 7 6 10 10 5 11 11 15 16 19 19 19 18 18 18 18 18 18
13 13 12 13 13 16 19 19 15 11 12 13 13 14 14 11 9 9 10 10 10 7 9 11 10 9 9 12 20 19 23 22 20 20 19 19 18 18
12 14 15 14 12 14 14 10 15 19 19 15 16 14 16 14 12 12 10 11 10 9 10 9 7 8 12 12 13 24 22 23 22 21 19 18 18 18
12 12 13 13 13 13 14 15 14 14 13 11 14 15 15 14 15 13 12 13 11 11 11 12 10 7 14 8 7 17 22 22 21 21 19 18 16 16
12 12 12 13 12 7 11 16 16 14 14 18 19 18 19 18 16 10 12 11 14 12 11 11 11 12 9 9 7 13 16 16 15 14 15 14 14 12
12 12 13 13 5 9 10 11 13 15 15 16 17 17 15 17 20 17 13 15 12 12 11 11 9 9 11 10 10 7 6 6 7 12 16 17 13 8
12 11 11 11 9 9 9 12 12 11 12 15 16 14 15 15 13 13 16 15 15 14 11 10 10 9 11 10 5 5 5 4 5 6 11 13 12 13
12 12 12 19 21 15 14 18 17 17 15 15 14 15 15 13 12 10 13 16 15 17 13 10 6 9 10 8 7 7 6 5 5 4 5 9 11 12
12 16 18 16 15 16 19 17 17 13 13 14 14 14 14 12 12 8 6 10 17 16 12 12 9 11 11 11 10 10 7 6 6 9 6 4 6 6
16 13 18 23 28 27 20 15 14 14 14 14 14 13 14 13 11 10 10 9 11 11 13 12 13 12 11 12 11 11 9 8 8 8 7 7 8 9
14 11 12 13 13 13 10 11 11 11 13 9 10 11 13 12 10 9 9 7 8 6 9 10 13 14 12 14 12 11 10 10 10 9 10 9 9 11
10 11 12 12 12 10 10 10 10 14 12 12 12 10 9 12 12 12 9 9 12 10 10 6 7 9 9 12 16 12 11 10 9 7 8 9 10 9
13 11 11 12 11 11 11 10 9 11 10 11 7 11 10 7 12 12 11 11 8 8 11 9 3 6 10 12 8 24 13 11 10 10 9 9 11 10
9 10 10 10 11 11 10 10 10 9 9 9 10 9 14 9 8 12 10 8 10 10 9 11 6 9 8 11 12 8 19 14 10 10 10 10 9 3
10 10 9 10 10 9 11 10 9 9 9 9 9 9 12 12 11 11 11 12 11 9 11 12 11 10 4 6 11 11 11 27 13 10 8 8 9 5
10 10 10 10 10 10 10 9 9 10 10 9 11 9 9 13 13 14 13 12 12 14 13 11 10 9 9 10 12 12 10 8 16 8 3 4 8 11
11 11 11 10 10 10 10 9 10 10 9 11 9 8 9 13 14 14 13 12 10 12 12 10 10 8 10 12 12 10 13 12 6 6 12 3 2 2
Wind_Direction
236 227 233 247 225 209 228 228 233 285 295 302 85 11 315 261 248 268 302 205 193 198 202 204 211 215 218 223 224 223 223 227 225 220 217 222 230 230
295 22 346 312 329 320 307 283 284 281 284 260 294 313 320 323 258 195 248 269 205 203 200 208 209 212 215 218 222 222 222 224 227 226 221 219 222 227
309 278 283 308 297 308 307 304 274 269 287 294 297 291 298 304 304 314 276 248 240 202 199 200 203 210 213 214 218 220 222 223 225 228 227 225 223 223
284 292 288 291 322 293 284 295 315 309 256 277 284 291 284 287 281 293 288 276 275 204 201 199 200 202 207 214 215 216 219 222 222 227 229 228 227 226
276 292 284 290 285 291 306 299 297 305 304 292 288 275 283 291 255 249 262 282 278 277 201 212 213 211 204 205 212 215 215 216 221 224 225 225 225 228
278 276 272 272 268 273 277 292 290 291 288 276 269 268 258 257 261 255 262 237 270 287 263 218 199 211 218 212 206 208 213 218 219 223 227 227 227 227
284 276 271 282 312 279 284 282 286 284 288 289 285 276 268 258 247 264 260 239 260 266 277 280 212 207 216 219 221 214 212 214 217 218 220 225 229 229
280 280 274 278 265 242 242 248 256 270 272 277 282 283 292 298 283 278 281 285 263 259 267 268 269 260 231 206 201 211 206 210 212 215 218 219 222 226
294 285 278 275 286 293 290 261 245 237 240 253 262 265 279 288 294 295 283 285 278 270 235 250 279 297 273 261 201 198 198 204 210 210 212 214 218 223
275 274 280 285 287 288 289 289 288 288 277 259 248 255 257 261 266 267 267 274 271 267 265 270 262 234 259 253 234 209 203 200 206 207 204 204 213 221
296 291 291 291 299 17 303 289 283 280 287 277 273 274 268 257 246 260 265 257 244 240 223 241 260 271 264 262 263 200 215 203 195 207 216 215 212 218
305 302 303 283 118 28 302 288 284 282 292 298 308 296 269 259 247 245 249 258 266 261 265 262 248 260 270 255 255 255 220 231 242 208 213 211 198 223
305 296 292 50 6 313 296 293 277 279 289 288 284 277 270 264 240 224 232 239 246 252 251 255 249 244 219 259 284 290 234 218 203 206 226 238 200 202
304 301 302 335 326 312 301 290 289 280 274 266 262 265 265 260 248 254 239 229 234 242 251 262 286 257 240 249 256 252 230 213 189 214 195 192 205 221
302 299 296 290 285 285 278 289 292 279 271 273 261 257 265 266 281 261 254 230 231 242 246 259 264 258 269 256 250 242 236 232 223 195 250 182 169 189
316 316 307 288 268 261 272 268 261 258 250 256 256 268 264 270 279 271 271 264 236 229 225 235 239 246 246 255 249 246 247 217 217 229 224 212 215 224
302 296 289 289 289 284 282 283 285 282 277 273 286 289 274 276 267 254 263 276 266 257 249 234 220 225 229 236 250 261 255 244 219 202 200 211 229 228
279 279 275 276 276 278 270 265 269 277 284 281 279 281 279 281 269 268 269 268 271 272 261 265 221 202 229 244 234 247 250 263 269 237 224 216 224 227
282 284 282 286 289 294 291 287 276 271 283 282 271 285 279 276 294 260 257 256 266 251 262 244 255 246 221 239 258 214 232 238 240 256 255 249 231 233
281 278 276 277 283 288 295 285 283 282 273 280 287 283 281 277 280 268 248 238 255 266 260 259 275 253 250 252 249 256 203 246 223 226 238 258 248 153
295 286 277 272 269 272 278 285 284 277 274 270 273 280 285 284 273 264 251 225 240 251 257 257 257 254 265 295 277 256 267 209 238 252 231 249 266 259
292 291 288 280 272 270 270 270 273 272 265 264 270 280 273 279 261 259 259 255 240 234 242 257 237 236 247 264 262 259 255 263 226 249 301 243 247 251
283 282 282 283 277 268 265 262 265 265 262 271 262 252 258 273 268 269 253 255 255 261 241 248 264 258 252 239 234 254 251 258 236 215 238 265 177 85